Location: D�pe
(52.6057°N, 8.1808°E)
Time: 06:13:59
(UTC+00:00)

Okean O Rocket - Pass Details

Date: 29 October 2020
Orbit: 623 x 644 km, 98.2° (Epoch: 01 December)

Event Time Altitude Azimuth Distance (km) Brightness Sun altitude
Rises 17:23:16 0° 187° (S) 2,907 5.2 -12.8°
Reaches altitude 10° 17:25:37 10° 196° (SSW) 2,002 4.5 -13.1°
Maximum altitude 17:29:37 35° 263° (W) 1,017 3.4 -13.7°
Drops below altitude 10° 17:33:38 10° 330° (NNW) 2,009 4.5 -14.3°
Sets 17:36:00 0° 339° (NNW) 2,920 5.2 -14.7°
